Aswan, Egypt

3:13 AM EET on September 26, 2016 (GMT +0200)
Aswan International

Weather History for HESN - December, 2011

Change the Weather History Date:

Friday, December 9, 2011

  Actual Average Record
Temperature  
Mean Temperature 63 °F -  
Max Temperature 75 °F 75 °F 88 °F (2014)
Min Temperature 51 °F 54 °F 50 °F (2007)
Degree Days  
Heating Degree Days 2    
Growing Degree Days 13 (Base 50)    
Moisture  
Dew Point 39 °F    
Average Humidity 40    
Maximum Humidity 58    
Minimum Humidity 18    
Precipitation  
Precipitation 0.00 in - - ()
Sea Level Pressure  
Sea Level Pressure 30.09 in    
Wind  
Wind Speed 8 mph ()    
Max Wind Speed 17 mph    
Max Gust Speed -    
Visibility 6.0 miles    
Events      
Averages and records for this station are not official NWS values.
T = Trace of Precipitation, MM = Missing Value Source: Averaged Metar Reports

Daily Weather History Graph

Daily Weather History Graph

Search for Another Location

Airport or City:

Trip Planner

Search our weather history database for the weather conditions in past years. The results will help you decide how hot, cold, wet, or windy it might be!

Date:

Astronomy

Dec. 09, 2011 Rise Set
Actual Time 6:19 AM EET 5:01 PM EET
Civil Twilight 5:55 AM EET 5:26 PM EET
Nautical Twilight 5:26 AM EET 5:54 PM EET
Astronomical Twilight 4:59 AM EET 6:22 PM EET
Moon 4:10 PM EET (12/9) 5:09 AM EET (12/9)
Length of Visible Light 11h 31m
Length of Day
10h 42m
Waxing Gibbous, 99% of the Moon is Illuminated
Dec 9
Waxing Gibbous
Dec 10
Full
Dec 18
Last Quarter
Dec 24
New
Jan 1
First Quarter

Hourly Weather History & Observations

Time (EET) Temp. Dew Point Humidity Pressure Visibility Wind Dir Wind Speed Gust Speed Precip Events Conditions
12:00 AM 57.2 °F 37.4 °F 48% 30.09 in - North 6.9 mph - N/A   Clear
1:00 AM 55.4 °F 35.6 °F 47% 30.09 in - North 6.9 mph - N/A   Clear
2:00 AM 55 °F 36 °F 36% 30.11 in 6 mi North 9.2 mph - -  
2:00 AM 55.4 °F 35.6 °F 47% 30.09 in - North 9.2 mph - N/A   Clear
3:00 AM 53.6 °F 35.6 °F 51% 30.09 in - North 8.1 mph - N/A   Clear
4:00 AM 51.8 °F 37.4 °F 58% 30.09 in - North 8.1 mph - N/A   Clear
8:00 AM 56 °F 41 °F 46% 30.16 in 6 mi North 8.1 mph - -   Clear
8:00 AM 55.4 °F 41.0 °F 58% 30.12 in - North 8.1 mph - N/A   Clear
9:00 AM 59.0 °F 41.0 °F 51% 30.15 in - North 10.4 mph - N/A   Clear
10:00 AM 64.4 °F 42.8 °F 45% 30.15 in - North 11.5 mph - N/A   Clear
11:00 AM 68.0 °F 42.8 °F 40% 30.12 in - North 17.3 mph - N/A   Clear
12:00 PM 69.8 °F 41.0 °F 35% 30.09 in - North 15.0 mph - N/A   Clear
1:00 PM 71.6 °F 41.0 °F 33% 30.06 in - North 12.7 mph - N/A   Clear
2:00 PM 73 °F 39 °F 18% 30.04 in 6 mi North 11.5 mph - -  
2:00 PM 73.4 °F 39.2 °F 29% 30.06 in - North 11.5 mph - N/A   Clear
3:00 PM 75.2 °F 37.4 °F 25% 30.04 in - NNW 10.4 mph - N/A   Clear
4:00 PM 75.2 °F 37.4 °F 25% 30.04 in - North 9.2 mph - N/A   Clear
5:00 PM 71.6 °F 39.2 °F 31% 30.06 in - NNW 11.5 mph - N/A   Clear
6:00 PM 68.0 °F 39.2 °F 35% 30.06 in - North 12.7 mph - N/A   Clear
7:00 PM 64.4 °F 39.2 °F 40% 30.06 in - North 10.4 mph - N/A   Clear
8:00 PM 64 °F 40 °F 29% 30.09 in 6 mi North 9.2 mph - -  
8:00 PM 64.4 °F 39.2 °F 40% 30.09 in - North 9.2 mph - N/A   Clear
9:00 PM 62.6 °F 39.2 °F 42% 30.09 in - North 8.1 mph - N/A   Clear
10:00 PM 60.8 °F 39.2 °F 45% 30.09 in - North 8.1 mph - N/A   Clear
11:00 PM 57.2 °F 39.2 °F 51% 30.09 in - NNW 8.1 mph - N/A   Clear